Vorticity
20 0 17 6 8 10 43 5 5 10 -3 4 7 4 5 5 6 17 28 20 4 -0 8 4 2 -1 4 7 4 8 12 7 8 8 10 11 13 13 14 10 8 11 12 7 9 8 9 7 10 9 12 10 8 8
10 -2 3 17 12 -2 39 3 8 6 2 7 9 7 6 2 4 27 59 15 -7 7 12 18 3 4 8 2 4 10 11 15 9 10 9 10 9 14 14 6 8 12 9 7 10 7 12 13 10 13 14 6 4 7
24 13 6 26 -2 11 32 4 11 -2 6 10 7 6 1 5 15 58 43 11 9 12 10 19 20 15 6 8 4 12 9 13 14 7 8 8 7 8 14 11 10 12 9 8 4 10 10 5 8 9 10 4 5 7
19 25 -2 9 2 31 16 8 9 0 10 8 6 2 5 14 57 50 49 19 3 7 5 11 14 12 13 3 9 7 1 22 14 5 7 4 8 7 9 11 13 12 10 6 4 7 -3 5 5 6 9 7 6 4
11 19 14 10 2 33 11 6 8 5 10 6 3 2 18 47 53 49 53 9 1 11 18 6 7 10 2 -2 5 8 17 16 13 -7 4 10 11 12 9 9 20 11 9 7 4 4 -5 1 3 9 13 7 4 5
2 14 22 10 31 25 9 8 4 10 7 3 3 21 40 65 53 51 8 8 6 18 15 7 9 6 6 11 5 4 16 19 21 13 6 17 17 11 10 6 17 14 9 8 4 5 3 -0 3 6 15 14 7 3
10 27 27 13 26 20 4 10 9 9 4 6 13 36 58 70 33 8 8 12 18 13 15 13 13 12 8 9 13 12 19 2 7 13 13 9 11 16 12 9 16 15 6 10 3 1 3 2 2 7 10 17 14 11
9 22 32 16 39 9 8 6 6 8 5 7 30 47 66 10 4 5 13 10 4 4 5 2 4 20 17 10 20 19 6 17 12 12 16 12 17 17 19 13 15 18 9 9 11 3 4 4 3 12 10 15 10 7
8 31 14 41 16 3 6 6 7 6 10 15 45 61 -11 2 5 10 9 3 5 5 4 4 4 7 25 -1 11 6 4 4 12 22 15 20 24 23 21 15 12 19 8 7 11 7 5 4 8 9 7 11 5 7
3 35 6 49 5 5 4 7 7 6 16 33 52 -6 -4 -1 -4 9 5 3 10 11 -1 4 12 22 13 12 7 1 1 12 21 23 17 15 8 16 12 14 18 21 12 4 8 4 7 5 7 8 5 7 8 3
13 41 31 29 3 5 4 7 7 10 32 13 -0 -2 -8 1 3 3 8 7 7 10 11 -1 -1 -1 15 25 18 10 7 12 6 18 14 10 5 16 18 21 22 15 10 -1 14 0 7 10 9 7 7 9 9 7
14 34 42 12 5 4 6 6 7 10 36 2 5 4 2 2 5 2 4 5 1 1 15 6 1 -4 -2 -3 27 25 14 8 8 16 25 22 12 5 12 18 23 17 15 6 6 9 12 7 7 9 11 18 11 9
22 31 35 16 4 4 6 5 6 10 20 4 5 7 -1 3 -6 -8 -8 -12 1 4 1 11 14 1 -4 3 2 -2 5 10 15 18 8 14 6 36 11 5 6 6 10 6 9 10 9 11 19 15 14 19 14 6
20 34 29 16 4 5 5 5 6 8 15 17 18 12 -18 12 -7 -0 4 -1 0 7 7 12 12 11 6 5 8 3 -1 2 7 12 16 2 6 4 31 33 11 8 9 12 14 14 17 10 8 17 14 8 2 1
10 35 24 20 9 5 4 5 5 6 10 12 20 10 25 2 4 4 -1 2 9 5 5 14 7 7 7 8 3 7 7 2 2 6 10 12 9 7 5 6 17 30 29 31 15 9 8 15 17 3 9 13 6 16
5 41 27 15 13 5 5 3 5 6 6 9 11 8 19 22 13 5 13 5 -1 -1 5 4 1 3 4 6 9 8 5 7 7 8 5 5 7 12 8 7 7 5 4 6 15 15 12 9 10 10 5 6 8 6
10 16 30 25 19 12 7 2 0 5 8 8 8 9 10 7 17 24 31 22 8 -0 -2 -1 3 -2 -6 -1 6 4 3 4 5 6 7 4 3 3 4 12 8 5 7 5 5 5 4 6 11 14 13 11 10 11
14 13 15 25 14 14 16 9 7 5 4 7 6 5 8 12 8 8 7 12 19 26 36 41 36 20 12 10 9 8 5 2 0 1 2 3 5 3 2 4 4 6 11 10 6 6 5 2 2 3 3 5 8 11
6 8 13 14 16 20 19 12 8 11 7 6 13 8 5 8 8 9 8 8 5 5 8 8 11 13 10 11 9 14 19 30 36 32 28 20 14 9 3 1 -0 2 6 4 3 5 7 9 9 7 5 3 4 4
5 11 8 10 11 13 16 13 12 14 13 10 6 8 14 8 4 7 8 9 8 5 5 7 8 9 11 13 14 18 18 14 8 3 -0 -4 3 17 26 34 34 26 15 6 4 6 5 4 5 6 9 12 11 5
9 5 7 11 11 7 10 13 13 12 15 17 14 7 4 9 15 8 4 5 9 9 10 6 4 6 5 7 6 6 8 10 12 12 12 11 13 12 13 13 4 -5 6 29 40 28 10 6 2 3 6 7 7 12
13 19 21 4 7 10 9 13 10 12 12 17 19 14 11 9 8 8 16 15 6 12 9 8 7 5 5 5 6 5 6 7 6 6 8 10 11 12 12 11 11 13 14 13 11 1 -0 19 40 26 0 3 6 10
6 11 17 18 10 3 11 10 13 13 11 12 15 19 17 13 11 11 9 5 18 10 17 -1 8 7 7 9 7 6 6 6 5 6 8 9 10 11 9 8 10 14 16 16 16 17 15 12 9 8 36 31 -1 6
3 3 8 16 19 14 5 11 14 17 16 13 11 12 13 13 13 14 10 14 12 11 15 21 9 8 9 9 9 8 7 8 8 8 7 9 10 10 12 11 12 11 12 12 12 13 15 14 15 11 8 12 36 26
16 11 3 11 21 17 16 13 14 16 14 13 13 14 12 12 14 12 16 13 11 11 10 17 14 8 9 11 10 10 9 8 8 7 5 8 9 10 8 8 9 10 13 16 16 16 17 16 16 15 10 8 10 10
11 15 7 2 15 24 7 11 15 17 15 13 12 11 11 14 15 17 18 15 14 14 11 13 13 9 9 10 9 9 9 7 7 8 7 8 7 6 9 11 10 10 12 12 16 12 15 20 16 14 15 14 12 7
5 11 9 4 10 28 6 5 10 11 13 15 15 14 11 11 12 15 14 15 15 13 12 12 12 11 9 7 9 9 7 7 10 10 8 7 6 7 9 14 11 11 13 12 15 19 15 16 23 27 18 16 13 13
9 7 5 6 16 18 14 7 5 8 12 16 15 12 10 12 13 13 12 11 11 10 12 13 14 10 9 9 8 8 8 10 7 7 9 8 6 10 13 9 11 14 9 17 19 22 24 25 24 24 24 24 22 20
15 13 14 10 14 10 10 12 6 7 15 13 14 13 15 13 12 12 12 12 12 11 12 14 14 11 10 9 9 8 8 6 7 7 7 9 9 11 11 11 14 11 19 27 26 26 27 27 26 25 24 23 24 27
18 21 11 9 17 10 10 8 9 13 13 13 11 15 18 14 12 12 12 13 12 13 15 13 10 10 9 9 8 7 5 7 9 11 10 6 7 9 10 12 17 27 30 31 30 28 27 30 30 30 26 24 24 24
23 15 16 18 14 5 3 8 9 14 15 12 12 15 13 12 14 13 14 14 17 15 11 9 9 8 8 8 7 7 8 7 8 10 9 9 10 11 19 26 29 32 33 27 32 33 32 27 31 33 22 23 25 26
15 15 13 10 5 5 10 14 13 12 14 13 17 16 14 14 13 13 12 16 11 9 9 8 9 9 9 8 8 6 7 10 10 9 10 13 18 27 28 30 32 31 34 20 32 21 17 25 27 18 19 29 23 39
11 12 11 7 6 7 5 8 10 14 19 18 16 17 14 13 16 14 11 9 9 9 8 9 10 9 7 7 6 9 10 10 11 11 13 22 26 29 32 29 11 13 42 22 18 22 24 37 24 20 30 26 21 48
Height
5605 5604 5602 5599 5596 5595 5593 5593 5592 5590 5588 5586 5583 5581 5578 5575 5572 5571 5572 5574 5578 5582 5584 5587 5589 5591 5593 5594 5595 5596 5597 5598 5599 5601 5603 5604 5605 5607 5609 5611 5613 5616 5618 5620 5622 5624 5627 5627 5628 5628 5628 5626 5625 5623
5596 5595 5592 5590 5588 5586 5585 5586 5585 5582 5580 5578 5574 5570 5567 5562 5557 5556 5556 5560 5567 5574 5578 5580 5584 5587 5589 5591 5593 5593 5594 5595 5597 5599 5601 5602 5603 5604 5606 5608 5610 5613 5615 5618 5621 5622 5623 5624 5624 5624 5625 5624 5623 5622
5586 5585 5583 5581 5579 5578 5578 5578 5577 5575 5573 5569 5564 5559 5552 5544 5536 5535 5535 5546 5557 5566 5571 5575 5578 5582 5585 5588 5589 5591 5591 5592 5594 5596 5598 5600 5601 5602 5602 5604 5606 5609 5612 5615 5617 5619 5619 5621 5621 5621 5622 5622 5621 5620
5575 5573 5573 5572 5570 5569 5570 5571 5570 5568 5566 5560 5555 5548 5537 5523 5516 5514 5522 5538 5551 5559 5566 5571 5575 5578 5582 5584 5586 5587 5588 5588 5591 5593 5595 5596 5597 5598 5598 5600 5602 5605 5609 5611 5613 5615 5617 5618 5618 5618 5619 5619 5618 5617
5565 5563 5562 5562 5562 5561 5563 5565 5563 5563 5559 5554 5547 5536 5521 5507 5501 5505 5518 5535 5548 5557 5563 5568 5572 5576 5579 5581 5582 5583 5584 5585 5587 5589 5591 5592 5592 5593 5594 5596 5599 5600 5603 5606 5609 5612 5614 5615 5615 5615 5615 5616 5616 5615
5555 5553 5552 5554 5554 5554 5557 5559 5558 5557 5553 5548 5540 5527 5510 5499 5499 5508 5523 5538 5548 5555 5561 5566 5571 5574 5576 5578 5579 5579 5579 5580 5582 5584 5585 5586 5586 5588 5590 5592 5592 5595 5598 5601 5606 5608 5610 5611 5611 5612 5611 5612 5612 5612
5547 5544 5544 5546 5546 5549 5551 5552 5554 5552 5549 5543 5534 5520 5506 5504 5511 5523 5534 5542 5549 5555 5561 5566 5569 5572 5573 5575 5576 5576 5576 5578 5579 5579 5580 5580 5581 5582 5585 5586 5584 5589 5594 5599 5601 5603 5605 5607 5608 5608 5607 5607 5607 5607
5538 5536 5537 5538 5538 5543 5546 5548 5549 5548 5544 5539 5530 5518 5515 5522 5526 5532 5540 5546 5552 5557 5562 5566 5569 5569 5570 5572 5572 5573 5574 5575 5575 5574 5575 5575 5575 5576 5577 5578 5581 5585 5589 5593 5595 5598 5601 5602 5603 5603 5603 5603 5603 5603
5530 5529 5530 5531 5533 5537 5540 5543 5544 5544 5540 5534 5529 5524 5527 5533 5537 5541 5545 5550 5555 5561 5563 5565 5567 5567 5568 5569 5570 5571 5571 5571 5571 5569 5569 5570 5569 5570 5571 5573 5576 5580 5586 5589 5591 5594 5596 5598 5599 5599 5599 5599 5600 5600
5522 5521 5522 5523 5528 5532 5536 5539 5540 5541 5537 5535 5535 5532 5536 5540 5543 5547 5550 5554 5557 5560 5562 5564 5565 5565 5566 5567 5568 5570 5569 5568 5567 5567 5566 5565 5565 5566 5567 5569 5572 5577 5581 5585 5587 5589 5591 5592 5593 5594 5595 5595 5595 5595
5513 5513 5514 5516 5522 5527 5530 5535 5536 5538 5536 5537 5540 5538 5541 5544 5546 5549 5553 5555 5558 5560 5562 5563 5564 5564 5565 5565 5565 5566 5567 5567 5565 5565 5564 5563 5564 5564 5565 5567 5570 5573 5577 5579 5582 5584 5585 5587 5588 5588 5589 5589 5589 5590
5504 5504 5506 5510 5515 5521 5524 5529 5532 5534 5535 5537 5540 5540 5542 5545 5547 5550 5553 5555 5557 5559 5561 5562 5563 5563 5564 5564 5563 5564 5564 5565 5564 5564 5562 5562 5562 5563 5564 5566 5568 5570 5572 5574 5577 5578 5580 5581 5582 5582 5582 5582 5583 5585
5495 5495 5498 5504 5508 5514 5519 5523 5527 5529 5532 5534 5537 5538 5540 5543 5544 5547 5550 5553 5554 5556 5558 5559 5560 5561 5562 5562 5563 5563 5562 5562 5562 5562 5562 5561 5561 5561 5562 5564 5565 5567 5568 5570 5572 5573 5573 5575 5576 5576 5576 5577 5578 5579
5489 5488 5491 5498 5504 5508 5513 5517 5521 5525 5528 5530 5533 5536 5536 5536 5541 5545 5546 5548 5550 5552 5553 5555 5556 5557 5558 5559 5559 5560 5561 5560 5560 5560 5559 5560 5560 5559 5559 5560 5561 5563 5564 5565 5567 5568 5569 5570 5570 5571 5571 5572 5573 5573
5482 5482 5485 5492 5497 5502 5507 5511 5515 5519 5522 5525 5528 5530 5531 5535 5537 5540 5542 5543 5545 5546 5548 5550 5551 5553 5553 5554 5555 5556 5556 5556 5557 5557 5558 5558 5557 5557 5557 5558 5559 5560 5560 5561 5562 5563 5564 5565 5566 5567 5568 5568 5568 5569
5477 5477 5480 5485 5491 5495 5499 5505 5508 5512 5516 5520 5523 5526 5529 5530 5532 5533 5534 5536 5538 5540 5542 5544 5546 5547 5548 5549 5551 5551 5552 5552 5552 5552 5553 5554 5554 5555 5555 5555 5555 5556 5557 5558 5559 5559 5560 5560 5561 5562 5562 5562 5563 5563
5472 5473 5475 5479 5484 5488 5493 5497 5502 5506 5509 5514 5517 5519 5522 5523 5524 5525 5527 5528 5530 5532 5534 5536 5539 5540 5542 5543 5544 5545 5545 5545 5546 5546 5547 5547 5548 5549 5550 5550 5551 5552 5552 5553 5553 5554 5555 5555 5555 5556 5556 5556 5556 5557
5468 5470 5472 5474 5478 5482 5486 5490 5494 5499 5504 5506 5509 5512 5516 5518 5520 5520 5521 5522 5523 5524 5526 5527 5530 5531 5533 5534 5536 5535 5536 5536 5537 5538 5538 5539 5540 5541 5542 5543 5544 5545 5546 5546 5547 5547 5548 5548 5548 5549 5550 5550 5550 5550
5462 5465 5468 5471 5473 5476 5479 5483 5487 5491 5494 5498 5502 5505 5508 5511 5513 5515 5516 5517 5518 5519 5520 5521 5523 5525 5524 5525 5526 5527 5527 5527 5527 5528 5529 5529 5530 5531 5532 5533 5535 5535 5536 5537 5538 5538 5539 5539 5540 5541 5542 5542 5543 5543
5457 5460 5462 5465 5469 5471 5473 5477 5480 5483 5486 5489 5492 5496 5500 5503 5505 5508 5509 5511 5512 5514 5515 5516 5517 5518 5519 5519 5519 5519 5520 5520 5521 5521 5521 5521 5521 5520 5521 5521 5522 5522 5523 5525 5525 5526 5527 5528 5529 5530 5530 5531 5532 5533
5451 5453 5456 5459 5462 5464 5467 5470 5472 5476 5478 5481 5484 5487 5490 5493 5497 5499 5501 5503 5505 5508 5508 5509 5510 5512 5512 5513 5513 5514 5514 5513 5513 5513 5513 5512 5512 5512 5512 5511 5512 5512 5511 5510 5511 5512 5513 5514 5515 5517 5518 5519 5520 5521
5444 5446 5449 5451 5455 5459 5461 5463 5466 5468 5471 5473 5476 5478 5481 5484 5487 5490 5492 5495 5498 5499 5500 5501 5502 5504 5505 5505 5505 5506 5506 5507 5507 5507 5506 5505 5504 5503 5502 5501 5500 5499 5498 5498 5499 5499 5498 5497 5498 5500 5502 5504 5506 5508
5437 5439 5441 5444 5448 5451 5455 5455 5458 5460 5463 5466 5467 5470 5473 5475 5477 5480 5483 5486 5487 5488 5490 5493 5495 5496 5496 5497 5497 5497 5497 5497 5497 5497 5496 5495 5494 5493 5491 5489 5488 5487 5485 5484 5484 5484 5484 5483 5484 5484 5484 5488 5490 5493
5429 5432 5434 5436 5441 5444 5447 5448 5450 5452 5455 5457 5459 5461 5464 5466 5468 5470 5474 5476 5476 5479 5481 5483 5484 5485 5486 5487 5487 5487 5487 5486 5486 5485 5485 5484 5482 5481 5479 5477 5475 5473 5472 5470 5469 5468 5468 5468 5468 5469 5470 5471 5472 5476
5420 5423 5425 5429 5432 5437 5438 5441 5443 5445 5447 5448 5450 5452 5454 5456 5459 5461 5464 5465 5466 5469 5470 5473 5474 5475 5476 5476 5477 5477 5476 5475 5474 5473 5472 5472 5470 5467 5465 5463 5460 5458 5457 5456 5453 5451 5450 5451 5452 5452 5454 5455 5457 5460
5409 5411 5416 5422 5426 5429 5431 5433 5435 5436 5438 5440 5442 5443 5445 5447 5449 5453 5455 5455 5457 5459 5460 5462 5463 5464 5465 5466 5466 5466 5466 5464 5463 5461 5458 5457 5455 5454 5452 5449 5445 5439 5439 5439 5436 5433 5432 5431 5432 5433 5435 5437 5440 5444
5395 5403 5409 5415 5418 5420 5423 5425 5427 5429 5430 5432 5434 5435 5436 5438 5440 5443 5444 5446 5448 5449 5451 5452 5453 5454 5455 5455 5455 5454 5453 5452 5451 5448 5445 5442 5439 5436 5435 5433 5428 5422 5419 5416 5415 5414 5412 5410 5410 5412 5414 5417 5421 5425
5384 5394 5402 5407 5410 5411 5414 5417 5419 5421 5422 5424 5425 5426 5429 5432 5434 5435 5436 5437 5438 5440 5441 5443 5444 5444 5444 5444 5444 5443 5441 5440 5438 5435 5431 5426 5421 5417 5416 5412 5408 5403 5399 5394 5391 5389 5388 5388 5388 5389 5391 5395 5399 5404
5375 5387 5393 5397 5400 5402 5405 5408 5411 5412 5413 5415 5417 5419 5422 5423 5424 5426 5427 5428 5429 5431 5432 5433 5433 5434 5434 5434 5432 5431 5429 5427 5424 5420 5416 5411 5404 5397 5394 5389 5385 5380 5375 5370 5365 5362 5362 5363 5365 5367 5370 5374 5379 5384
5367 5375 5382 5388 5391 5395 5397 5400 5402 5404 5406 5407 5409 5411 5413 5414 5415 5417 5419 5420 5421 5422 5423 5423 5424 5424 5424 5422 5420 5418 5416 5413 5409 5405 5401 5395 5388 5381 5374 5367 5361 5355 5350 5346 5342 5339 5340 5340 5343 5347 5351 5357 5362 5368
5357 5365 5373 5379 5384 5386 5388 5391 5393 5395 5397 5399 5401 5403 5405 5406 5408 5409 5411 5411 5413 5414 5414 5414 5415 5414 5413 5411 5408 5405 5401 5398 5394 5389 5383 5377 5369 5361 5353 5345 5339 5334 5329 5326 5323 5322 5323 5325 5327 5331 5336 5342 5347 5354
5352 5360 5367 5371 5375 5378 5380 5382 5384 5387 5389 5392 5394 5396 5397 5399 5401 5402 5402 5404 5405 5406 5406 5406 5405 5404 5402 5400 5396 5393 5388 5383 5377 5371 5364 5357 5349 5341 5334 5328 5322 5317 5314 5312 5311 5311 5312 5313 5316 5321 5326 5331 5339 5346
5350 5354 5358 5362 5366 5370 5373 5374 5376 5379 5382 5385 5387 5388 5390 5392 5394 5396 5395 5396 5398 5398 5398 5397 5395 5394 5391 5388 5385 5381 5376 5370 5364 5357 5349 5340 5332 5325 5319 5314 5310 5306 5302 5301 5301 5302 5303 5305 5309 5314 5319 5325 5333 5341